{"data":{"norad_id":59926,"intl_designator":"2024-106E","name":"STARLINK-31957","alt_names":[],"object_type":"PAYLOAD","status":"ACTIVE","operator":null,"country":"US","launch_date":"2024-06-01","launch_site_code":"AFETR","launch_vehicle":null,"mission":null,"orbit_class":"UNKNOWN","rcs_meters":null,"size_class":null,"mass_kg":null,"dimensions":null,"purposes":["comms"],"wikipedia_slug":null,"has_3d_model":false,"image_url":null,"decayed_at":null,"tle_current":{"epoch":"2026-09-20T20:17:15.844128Z","epoch_age_seconds":144670,"freshness":"FRESH","line1":"1 59926U 24106E   26263.84532227 -.00000245  00000+0  61795-6 0  9991","line2":"2 59926  43.0033 310.0163 0001027 275.0007  85.0728 15.27576673130420","mean_motion":15.27576673,"eccentricity":0.0001027,"inclination_deg":43.0033,"raan_deg":310.0163,"arg_perigee_deg":275.0007,"mean_anomaly_deg":85.0728,"bstar":6.1795e-7,"rev_number":13042,"period_min":94.266954022805,"perigee_km":482.35441345743,"apogee_km":483.7637031278,"semimajor_km":6861.1960582926,"source":"CELESTRAK","updated_at":"2026-09-22T09:00:49.111427Z"}}}